Tracking 25701 objects as of 4-Jul-2022
HD Live streaming from Space Station
objects crossing your sky now

COSMOS 970 DEB

Track COSMOS 970 DEB now!
10-day predictions


NORAD ID: 10884
Int'l Code: 1977-121AF
Perigee: 842.2 km
Apogee: 1,121.7 km
Inclination: 66.4 °
Period: 104.6 minutes
Semi major axis: 7352 km
RCS: 0.1338 m2 (medium)
Launch date: December 21, 1977
Source: Commonwealth of Independent States (former USSR) (CIS)
Launch site: TYURATAM MISSILE AND SPACE COMPLEX (TTMTR)

Note: This is SATELLITE DEBRIS
aabbcc
Your satellite tracking list
Your tracking list is empty




NASA's NSSDC Master Catalog

Two Line Element Set (TLE):
1 10884U 77121AF  22184.53112350 -.00000056  00000-0  17907-4 0  9996
2 10884  66.3886 277.1134 0190052  68.6733 293.4504 13.76919944233047
Source of the keplerian elements: AFSPC